Lytton Rcs, British Columbia

4:54 PM PDT on May 27, 2017 (GMT -0700)
Lytton Rcs

Weather History for CVLY - December, 2013

Change the Weather History Date:

Saturday, December 14, 2013

  Actual Average Record
Temperature  
Mean Temperature 42 °F -  
Max Temperature 52 °F - - ()
Min Temperature 31 °F - - ()
Degree Days  
Heating Degree Days 24    
Moisture  
Dew Point 36 °F    
Average Humidity 61    
Maximum Humidity 76    
Minimum Humidity 34    
Precipitation  
Precipitation 0.00 in - - ()
Sea Level Pressure  
Sea Level Pressure 30.14 in    
Wind  
Wind Speed 16 mph ()    
Max Wind Speed 24 mph    
Max Gust Speed 44 mph    
T = Trace of Precipitation, MM = Missing Value Source: Averaged Metar Reports

Daily Weather History Graph

Daily Weather History Graph

Search for Another Location

Airport or City:

Trip Planner

Search our weather history database for the weather conditions in past years. The results will help you decide how hot, cold, wet, or windy it might be!

Date:

Astronomy

Dec. 14, 2013 Rise Set
Actual Time 7:58 AM PST 4:03 PM PST
Civil Twilight 7:20 AM PST 4:42 PM PST
Nautical Twilight 6:38 AM PST 5:23 PM PST
Astronomical Twilight 5:58 AM PST 6:03 PM PST
Moon 2:38 PM PST (12/14) 5:13 AM PST (12/14)
Length of Visible Light 9h 22m
Length of Day
8h 04m
Waxing Gibbous, 94% of the Moon is Illuminated
Dec 14
Waxing Gibbous
Dec 17
Full
Dec 25
Last Quarter
Jan 1
New
Jan 7
First Quarter

Hourly Weather History & Observations

Time (PST) Temp. Windchill Dew Point Humidity Pressure Visibility Wind Dir Wind Speed Gust Speed Precip Events Conditions
12:00 AM 45.1 °F 38.1 °F 36.7 °F 72% 30.26 in - South 16.1 mph 28.8 mph N/A   Unknown
1:00 AM 46.0 °F 39.3 °F 36.3 °F 69% 30.25 in - SSW 16.1 mph 33.4 mph N/A   Unknown
2:00 AM 47.5 °F - 35.8 °F 64% 30.25 in - SW 17.3 mph 35.7 mph N/A   Unknown
3:00 AM 47.7 °F - 36.0 °F 64% 30.28 in - SSW 19.6 mph 38.0 mph N/A   Unknown
4:00 AM 46 °F - 37 °F 62% 30.26 in - SSW 18.4 mph - -  
4:00 AM 45.5 °F 38.6 °F 37.0 °F 72% 30.26 in - SSW 16.1 mph 33.4 mph N/A   Unknown
5:00 AM 44.4 °F 36.1 °F 37.4 °F 76% 30.23 in - SSW 20.7 mph 31.1 mph N/A   Unknown
6:00 AM 46.0 °F 39.0 °F 37.4 °F 72% 30.22 in - SSW 17.3 mph 32.2 mph N/A   Unknown
7:00 AM 45.7 °F 38.6 °F 37.8 °F 74% 30.22 in - South 17.3 mph 31.1 mph N/A   Unknown
8:00 AM 45.5 °F 37.8 °F 37.8 °F 74% 30.18 in - South 19.6 mph 31.1 mph N/A   Unknown
9:00 AM 46.9 °F - 37.6 °F 70% 30.17 in - SSW 17.3 mph 32.2 mph N/A   Unknown
10:00 AM 48 °F - 38 °F 57% 30.18 in - SSW 17.3 mph - -  
10:00 AM 47.7 °F - 37.6 °F 68% 30.18 in - SSW 17.3 mph 33.4 mph N/A   Unknown
11:00 AM 48.4 °F - 37.2 °F 65% 30.16 in - South 16.1 mph 27.6 mph N/A   Unknown
12:00 PM 48.6 °F - 37.6 °F 66% 30.14 in - SSW 17.3 mph 36.8 mph N/A   Unknown
1:00 PM 47.3 °F - 38.8 °F 72% 30.09 in - SSW 23.0 mph 38.0 mph N/A   Unknown
2:00 PM 50.7 °F - 36.5 °F 58% 30.08 in - SSW 18.4 mph 32.2 mph N/A   Unknown
3:00 PM 50.7 °F - 35.2 °F 55% 30.03 in - SSW 20.7 mph 34.5 mph N/A   Unknown
4:00 PM 53 °F - 33 °F 34% 30.03 in - SSW 24.2 mph - -  
4:00 PM 52.5 °F - 32.7 °F 47% 30.03 in - South 24.2 mph 43.7 mph N/A   Unknown
5:00 PM 50.2 °F - 33.8 °F 53% 30.04 in - WSW 9.2 mph 24.2 mph N/A   Unknown
6:00 PM 50.5 °F - 33.4 °F 52% 30.04 in - SW 16.1 mph 32.2 mph N/A   Unknown
7:00 PM 50.2 °F - 34.0 °F 54% 30.06 in - SSW 21.9 mph 29.9 mph N/A   Unknown
8:00 PM 50.2 °F - 33.8 °F 53% 30.05 in - SSW 18.4 mph 33.4 mph N/A   Unknown
9:00 PM 50.5 °F - 34.2 °F 53% 30.04 in - SSW 20.7 mph 38.0 mph N/A   Unknown
10:00 PM 51 °F - 35 °F 41% 30.04 in - SSW 19.6 mph - -  
10:00 PM 50.9 °F - 34.5 °F 54% 30.04 in - SSW 19.6 mph 34.5 mph N/A   Unknown
11:00 PM 51.6 °F - 34.7 °F 52% 30.05 in - SW 20.7 mph 32.2 mph N/A   Unknown